| time (UTC) | temp F | wind direction | speed MPH | gust MPH | rain 1hr in | rain 24hr in | rain mn in | humidity % | barometer mb |
| 20260906121557 | 67 | 47 | 3.0 | 5.0 | 0.00 | 0.00 | 0.00 | 97 | 1017.0 |
| 20260906120055 | 67 | 42 | 4.0 | 5.0 | 0.00 | 0.00 | 0.00 | 97 | 1016.7 |
| 20260906114535 | 67 | 63 | 2.0 | 4.0 | 0.00 | 0.00 | 0.00 | 97 | 1016.3 |
| 20260906113037 | 67 | 57 | 2.0 | 5.0 | 0.00 | 0.00 | 0.00 | 97 | 1016.1 |
| 20260906111524 | 67 | 56 | 3.0 | 5.0 | 0.00 | 0.00 | 0.00 | 97 | 1015.9 |
| 20260906110012 | 67 | 47 | 4.0 | 7.0 | 0.00 | 0.00 | 0.00 | 97 | 1015.8 |
| 20260906104552 | 67 | 45 | 3.0 | 5.0 | 0.00 | 0.00 | 0.00 | 97 | 1015.6 |
| 20260906103054 | 67 | 53 | 3.0 | 5.0 | 0.00 | 0.00 | 0.00 | 97 | 1015.3 |
| 20260906101533 | 67 | 40 | 3.0 | 5.0 | 0.00 | 0.00 | 0.00 | 97 | 1015.2 |
| 20260906100033 | 67 | 28 | 4.0 | 6.0 | 0.00 | 0.00 | 0.00 | 97 | 1015.2 |
| 20260906094515 | 67 | 25 | 4.0 | 5.0 | 0.00 | 0.00 | 0.00 | 97 | 1015.2 |
| 20260906093018 | 67 | 26 | 2.0 | 4.0 | 0.00 | 0.00 | 0.00 | 96 | 1015.2 |
| 20260906091613 | 68 | 26 | 3.0 | 4.0 | 0.00 | 0.00 | 0.00 | 96 | 1015.2 |
| 20260906090059 | 68 | 36 | 2.0 | 3.0 | 0.00 | 0.00 | 0.00 | 96 | 1015.1 |
| 20260906084559 | 68 | 36 | 3.0 | 5.0 | 0.00 | 0.00 | 0.00 | 96 | 1015.1 |
| 20260906083057 | 69 | 44 | 3.0 | 5.0 | 0.00 | 0.00 | 0.00 | 96 | 1015.0 |
| 20260906081557 | 69 | 44 | 3.0 | 6.0 | 0.00 | 0.00 | 0.00 | 95 | 1014.9 |
| 20260906080055 | 69 | 59 | 3.0 | 6.0 | 0.00 | 0.00 | 0.00 | 95 | 1014.9 |
| 20260906074553 | 69 | 40 | 3.0 | 4.0 | 0.00 | 0.00 | 0.00 | 95 | 1015.2 |
| 20260906073051 | 69 | 41 | 3.0 | 5.0 | 0.00 | 0.00 | 0.00 | 95 | 1015.1 |
| 20260906071550 | 70 | 50 | 2.0 | 5.0 | 0.00 | 0.00 | 0.00 | 94 | 1015.1 |
| 20260906070032 | 70 | 38 | 2.0 | 5.0 | 0.00 | 0.00 | 0.00 | 94 | 1015.1 |
| 20260906064530 | 70 | 18 | 5.0 | 7.0 | 0.00 | 0.00 | 0.00 | 94 | 1015.2 |
| 20260906063012 | 71 | 24 | 5.0 | 7.0 | 0.00 | 0.00 | 0.00 | 93 | 1015.3 |
| 20260906061510 | 71 | 19 | 3.0 | 5.0 | 0.00 | 0.00 | 0.00 | 93 | 1015.2 |
| 20260906060053 | 71 | 23 | 4.0 | 7.0 | 0.00 | 0.00 | 0.00 | 93 | 1015.2 |
| 20260906054552 | 71 | 32 | 4.0 | 6.0 | 0.00 | 0.00 | 0.00 | 93 | 1015.1 |
| 20260906053033 | 71 | 26 | 4.0 | 6.0 | 0.00 | 0.00 | 0.00 | 92 | 1015.0 |
| 20260906051532 | 71 | 28 | 4.0 | 5.0 | 0.00 | 0.00 | 0.00 | 92 | 1014.9 |
| 20260906050013 | 71 | 57 | 4.0 | 6.0 | 0.00 | 0.00 | 0.00 | 92 | 1014.7 |
| 20260906044512 | 71 | 39 | 3.0 | 5.0 | 0.00 | 0.00 | 0.00 | 92 | 1014.6 |
| 20260906043059 | 71 | 50 | 3.0 | 9.0 | 0.00 | 0.00 | 0.00 | 92 | 1014.5 |
| 20260906041557 | 71 | 63 | 3.0 | 9.0 | 0.00 | 0.00 | 0.00 | 92 | 1014.3 |
| 20260906040038 | 71 | 59 | 4.0 | 10.0 | 0.00 | 0.00 | 0.00 | 91 | 1014.2 |
| 20260906034534 | 71 | 57 | 6.0 | 9.0 | 0.00 | 0.00 | 0.00 | 91 | 1014.0 |
| 20260906033020 | 71 | 70 | 2.0 | 10.0 | 0.00 | 0.00 | 0.00 | 91 | 1014.1 |
| 20260906031515 | 71 | 58 | 5.0 | 11.0 | 0.00 | 0.00 | 0.00 | 91 | 1014.1 |
| 20260906030100 | 71 | 52 | 7.0 | 13.0 | 0.00 | 0.00 | 0.00 | 91 | 1014.1 |
| 20260906024558 | 71 | 61 | 8.0 | 13.0 | 0.00 | 0.00 | 0.00 | 90 | 1014.1 |
| 20260906023056 | 72 | 40 | 11.0 | 17.0 | 0.00 | 0.00 | 0.00 | 90 | 1014.0 |
| 20260906021555 | 73 | 46 | 11.0 | 17.0 | 0.00 | 0.00 | 0.00 | 89 | 1013.9 |
| 20260906014545 | 74 | 44 | 8.0 | 13.0 | 0.00 | 0.00 | 0.00 | 88 | 1013.3 |
| 20260906013050 | 75 | 52 | 7.0 | 11.0 | 0.00 | 0.00 | 0.00 | 89 | 1013.0 |
| 20260906011556 | 76 | 47 | 5.0 | 8.0 | 0.00 | 0.00 | 0.00 | 87 | 1013.0 |
| 20260906010019 | 76 | 53 | 4.0 | 6.0 | 0.00 | 0.00 | 0.00 | 87 | 1012.9 |
| 20260906004519 | 76 | 47 | 3.0 | 4.0 | 0.00 | 0.00 | 0.00 | 88 | 1012.9 |
| 20260906003104 | 77 | 10 | 4.0 | 6.0 | 0.00 | 0.00 | 0.00 | 86 | 1012.9 |
| 20260906001555 | 78 | 9 | 4.0 | 5.0 | 0.00 | 0.00 | 0.00 | 85 | 1012.9 |
| 20260906000050 | 78 | 13 | 4.0 | 5.0 | 0.00 | 0.00 | 0.00 | 84 | 1012.9 |
| 20260905234537 | 79 | 13 | 4.0 | 8.0 | 0.00 | 0.00 | 0.00 | 82 | 1012.9 |
| 20260905233013 | 80 | 32 | 8.0 | 13.0 | 0.00 | 0.00 | 0.00 | 80 | 1012.6 |
| 20260905231514 | 80 | 25 | 9.0 | 14.0 | 0.00 | 0.00 | 0.00 | 79 | 1012.6 |
| 20260905230059 | 81 | 30 | 9.0 | 15.0 | 0.00 | 0.00 | 0.00 | 80 | 1012.7 |
| 20260905224557 | 81 | 35 | 10.0 | 17.0 | 0.00 | 0.00 | 0.00 | 79 | 1012.4 |
| 20260905223057 | 82 | 26 | 11.0 | 17.0 | 0.00 | 0.00 | 0.00 | 78 | 1012.3 |
| 20260905221556 | 83 | 32 | 13.0 | 18.0 | 0.00 | 0.00 | 0.00 | 76 | 1012.1 |
| 20260905220059 | 84 | 31 | 11.0 | 17.0 | 0.00 | 0.00 | 0.00 | 75 | 1012.0 |
| 20260905214555 | 85 | 22 | 10.0 | 16.0 | 0.00 | 0.00 | 0.00 | 76 | 1011.8 |
| 20260905213059 | 84 | 34 | 11.0 | 18.0 | 0.00 | 0.00 | 0.00 | 76 | 1011.7 |
| 20260905211558 | 85 | 22 | 10.0 | 15.0 | 0.00 | 0.00 | 0.00 | 72 | 1011.8 |
| 20260905210039 | 86 | 24 | 9.0 | 14.0 | 0.00 | 0.00 | 0.00 | 74 | 1011.5 |
| 20260905204538 | 86 | 18 | 9.0 | 15.0 | 0.00 | 0.00 | 0.00 | 73 | 1011.6 |
| 20260905203019 | 85 | 22 | 10.0 | 15.0 | 0.00 | 0.00 | 0.00 | 74 | 1011.7 |
| 20260905201518 | 86 | 5 | 9.0 | 15.0 | 0.00 | 0.00 | 0.00 | 75 | 1011.9 |
| 20260905200105 | 86 | 360 | 11.0 | 14.0 | 0.00 | 0.00 | 0.00 | 72 | 1012.0 |
| 20260905194610 | 86 | 360 | 9.0 | 13.0 | 0.00 | 0.00 | 0.00 | 74 | 1011.8 |
| 20260905193042 | 87 | 355 | 6.0 | 13.0 | 0.00 | 0.00 | 0.00 | 75 | 1011.8 |
| 20260905191542 | 87 | 355 | 9.0 | 13.0 | 0.00 | 0.00 | 0.00 | 74 | 1012.0 |
| 20260905190024 | 87 | 350 | 5.0 | 10.0 | 0.00 | 0.00 | 0.00 | 73 | 1012.0 |
| 20260905184543 | 87 | 17 | 6.0 | 10.0 | 0.00 | 0.00 | 0.00 | 73 | 1012.1 |
| 20260905183018 | 86 | 36 | 4.0 | 10.0 | 0.00 | 0.00 | 0.00 | 73 | 1012.3 |
| 20260905181507 | 86 | 46 | 7.0 | 11.0 | 0.00 | 0.00 | 0.00 | 73 | 1012.3 |
| 20260905180045 | 86 | 39 | 5.0 | 9.0 | 0.00 | 0.00 | 0.00 | 75 | 1012.4 |
| 20260905174541 | 86 | 15 | 2.0 | 9.0 | 0.00 | 0.00 | 0.00 | 78 | 1012.5 |
| 20260905173017 | 86 | 5 | 5.0 | 9.0 | 0.00 | 0.00 | 0.00 | 77 | 1012.4 |
| 20260905171516 | 86 | 24 | 7.0 | 11.0 | 0.00 | 0.00 | 0.00 | 79 | 1012.4 |
| 20260905170058 | 86 | 38 | 7.0 | 10.0 | 0.00 | 0.00 | 0.00 | 78 | 1012.4 |
| 20260905164559 | 86 | 5 | 7.0 | 12.0 | 0.00 | 0.00 | 0.00 | 79 | 1012.6 |
| 20260905163040 | 86 | 24 | 6.0 | 13.0 | 0.00 | 0.00 | 0.00 | 79 | 1012.6 |
| 20260905161538 | 86 | 360 | 6.0 | 10.0 | 0.00 | 0.00 | 0.00 | 80 | 1012.5 |
| 20260905160027 | 86 | 36 | 6.0 | 10.0 | 0.00 | 0.00 | 0.00 | 77 | 1012.5 |
| 20260905154619 | 85 | 23 | 6.0 | 10.0 | 0.00 | 0.00 | 0.00 | 79 | 1012.3 |
| 20260905153003 | 85 | 5 | 4.0 | 7.0 | 0.00 | 0.00 | 0.00 | 82 | 1012.4 |
| 20260905151610 | 84 | 24 | 5.0 | 8.0 | 0.00 | 0.00 | 0.00 | 84 | 1012.3 |
| 20260905150042 | 83 | 9 | 4.0 | 8.0 | 0.00 | 0.00 | 0.00 | 86 | 1012.0 |
| 20260905144542 | 82 | 10 | 5.0 | 8.0 | 0.00 | 0.00 | 0.00 | 87 | 1012.0 |
| 20260905143024 | 82 | 30 | 6.0 | 9.0 | 0.00 | 0.00 | 0.00 | 89 | 1012.1 |
| 20260905141527 | 81 | 15 | 6.0 | 9.0 | 0.00 | 0.00 | 0.00 | 88 | 1012.0 |
| 20260905140005 | 81 | 13 | 4.0 | 7.0 | 0.00 | 0.00 | 0.00 | 90 | 1011.8 |
| 20260905134505 | 80 | 331 | 2.0 | 6.0 | 0.00 | 0.00 | 0.00 | 91 | 1011.8 |
| 20260905133050 | 79 | 315 | 1.0 | 5.0 | 0.00 | 0.00 | 0.00 | 91 | 1011.9 |
| 20260905131546 | 79 | 309 | 2.0 | 6.0 | 0.00 | 0.00 | 0.00 | 92 | 1012.2 |
| 20260905130026 | 78 | 339 | 1.0 | 4.0 | 0.00 | 0.00 | 0.00 | 93 | 1011.9 |
| 20260905124528 | 77 | 339 | 0.0 | 0.0 | 0.00 | 0.00 | 0.00 | 95 | 1011.5 |
| 20260905123008 | 76 | 339 | 0.0 | 0.0 | 0.00 | 0.00 | 0.00 | 95 | 1011.5 |